Lancaster, OH

4:01 AM EDT on March 28, 2017 (GMT -0400)
Fairfield County

Weather History for KLHQ - October, 2014

Change the Weather History Date:

Friday, October 17, 2014

  Actual Average Record
Temperature  
Mean Temperature 62 °F -  
Max Temperature 71 °F 63 °F 82 °F (1962)
Min Temperature 53 °F 40 °F 24 °F (1977)
Degree Days  
Heating Degree Days 3    
Growing Degree Days 12 (Base 50)    
Moisture  
Dew Point 49 °F    
Average Humidity 68    
Maximum Humidity 87    
Minimum Humidity 44    
Precipitation  
Precipitation 0.00 in - - ()
Sea Level Pressure  
Sea Level Pressure 29.74 in    
Wind  
Wind Speed 10 mph (SW)    
Max Wind Speed 20 mph    
Max Gust Speed 25 mph    
Visibility 10 miles    
Events      
Averages and records for this station are not official NWS values.
T = Trace of Precipitation, MM = Missing Value Source: NWS Daily Summary

Daily Weather History Graph

Daily Weather History Graph

Search for Another Location

Airport or City:

Trip Planner

Search our weather history database for the weather conditions in past years. The results will help you decide how hot, cold, wet, or windy it might be!

Date:

Astronomy

Oct. 17, 2014 Rise Set
Actual Time 7:42 AM EDT 6:48 PM EDT
Civil Twilight 7:15 AM EDT 7:15 PM EDT
Nautical Twilight 6:44 AM EDT 7:46 PM EDT
Astronomical Twilight 6:13 AM EDT 8:18 PM EDT
Moon 1:46 AM EDT (10/17) 3:33 PM EDT (10/17)
Length of Visible Light 11h 59m
Length of Day
11h 05m
Waning Crescent, 33% of the Moon is Illuminated
Oct 17
Waning Crescent
Oct 23
New
Oct 30
First Quarter
Nov 6
Full
Nov 14
Last Quarter

Hourly Weather History & Observations

Time (EDT) Temp. Dew Point Humidity Pressure Visibility Wind Dir Wind Speed Gust Speed Precip Events Conditions
12:21 AM 57.0 °F 52.0 °F 83% 29.81 in 10.0 mi SW 10.4 mph - N/A   Mostly Cloudy
12:38 AM 55.9 °F 52.0 °F 87% 29.80 in 10.0 mi SW 9.2 mph - N/A   Mostly Cloudy
12:53 AM 57.0 °F 52.0 °F 83% 29.80 in 10.0 mi SW 9.2 mph - N/A   Overcast
1:00 AM 57.0 °F 52.0 °F 83% 29.81 in 10.0 mi SW 9.2 mph - N/A   Overcast
1:53 AM 57.0 °F 51.1 °F 81% 29.80 in 10.0 mi SW 11.5 mph - N/A   Overcast
2:53 AM 55.9 °F 50.0 °F 80% 29.81 in 10.0 mi WSW 13.8 mph 20.7 mph N/A   Overcast
3:53 AM 54.0 °F 48.0 °F 80% 29.80 in 10.0 mi SW 8.1 mph - N/A   Overcast
4:14 AM 53.1 °F 48.0 °F 83% 29.80 in 10.0 mi SW 6.9 mph - N/A   Overcast
4:53 AM 53.1 °F 48.0 °F 83% 29.80 in 9.0 mi SW 5.8 mph - N/A   Overcast
5:53 AM 53.1 °F 48.0 °F 83% 29.78 in 10.0 mi South 6.9 mph - N/A   Overcast
6:37 AM 54.0 °F 48.0 °F 80% 29.78 in 10.0 mi South 9.2 mph - N/A   Overcast
6:53 AM 54.0 °F 48.0 °F 80% 29.77 in 10.0 mi SSW 8.1 mph - N/A   Overcast
7:11 AM 53.1 °F 48.0 °F 83% 29.77 in 10.0 mi South 9.2 mph - N/A   Scattered Clouds
7:53 AM 53.1 °F 48.0 °F 83% 29.75 in 10.0 mi South 9.2 mph - N/A   Clear
8:53 AM 55.0 °F 48.9 °F 80% 29.75 in 10.0 mi South 9.2 mph - N/A   Clear
9:53 AM 57.9 °F 50.0 °F 75% 29.73 in 10.0 mi South 12.7 mph - N/A   Clear
10:53 AM 61.0 °F 48.9 °F 64% 29.72 in 10.0 mi SSW 10.4 mph - N/A   Clear
11:53 AM 64.0 °F 50.0 °F 60% 29.69 in 10.0 mi SSW 15.0 mph 21.9 mph N/A   Clear
12:53 PM 66.9 °F 51.1 °F 57% 29.67 in 10.0 mi SW 15.0 mph 25.3 mph N/A   Partly Cloudy
1:53 PM 69.1 °F 52.0 °F 54% 29.63 in 10.0 mi WSW 18.4 mph 25.3 mph N/A   Clear
2:53 PM 70.0 °F 52.0 °F 53% 29.62 in 10.0 mi SW 10.4 mph 25.3 mph N/A   Partly Cloudy
3:53 PM 71.1 °F 50.0 °F 47% 29.63 in 10.0 mi WSW 19.6 mph 25.3 mph N/A   Scattered Clouds
4:53 PM 70.0 °F 46.9 °F 44% 29.64 in 10.0 mi West 17.3 mph 25.3 mph N/A   Partly Cloudy
5:53 PM 68.0 °F 48.0 °F 49% 29.66 in 10.0 mi WSW 9.2 mph 19.6 mph N/A   Partly Cloudy
6:53 PM 66.9 °F 48.0 °F 51% 29.67 in 10.0 mi WSW 10.4 mph - N/A   Overcast
7:53 PM 66.9 °F 46.0 °F 47% 29.68 in 10.0 mi West 10.4 mph - N/A   Overcast
8:53 PM 64.9 °F 46.0 °F 50% 29.70 in 10.0 mi West 8.1 mph - N/A   Overcast
9:53 PM 63.0 °F 46.0 °F 54% 29.72 in 10.0 mi West 12.7 mph 20.7 mph N/A   Overcast
10:53 PM 60.1 °F 45.0 °F 57% 29.75 in 10.0 mi WNW 9.2 mph 21.9 mph N/A   Overcast
11:53 PM 57.9 °F 44.1 °F 60% 29.75 in 10.0 mi West 12.7 mph 19.6 mph N/A   Overcast